Location: Elche
(38.2500°N, 0.7000°W)
Time: 22:38:28
(UTC+01:00)

Hubble Space Telescope - Visible Passes

Search period start: 18 March 2019 00:00
Search period end: 28 March 2019 00:00
Orbit: 537 x 540 km, 28.5° (Epoch: 17 March)

Date Brightness Start Highest point End Pass type
(mag) Time Alt. Az. Time Alt. Az. Time Alt. Az.
24 Mar 3.3 21:16:59 10° SSW 21:17:23 11° SSW 21:17:23 11° SSW visible
25 Mar 2.9 21:06:11 10° SW 21:07:45 16° SSW 21:07:45 16° SSW visible
26 Mar 2.5 20:55:27 10° SW 20:58:03 19° S 20:58:03 19° S visible
27 Mar 2.4 20:44:47 10° SW 20:47:52 20° S 20:48:18 20° SSE visible
